When you browse on this site, cookies collect data to enhance your experience and personalize the content and advertising you see.
Visit our Privacy Policy to learn more. By continuing to use the site, you agree to this use of cookies and data.
  • în România
  • Lista ţărilor
  • Pe 7 zile
  • Temperatura apei
  • Hartă satelitară
  • Meteo pe hartă
  • Widget-uri
  • user-avatar
    Intrare

    Meteo pe oră la Lyubohovo

    Astăzi, 23 Aprilie, Marţi

    Timp Temperatura Precipitaţii Vânt Presiune Umiditate
    00:00 +8°C° 0 mm 2 m/s 757 mmHg 71%
    01:00 +8°C° 0 mm 2 m/s 757 mmHg 72%
    02:00 +7°C° 0 mm 2 m/s 758 mmHg 72%
    03:00 +7°C° 0 mm 2 m/s 758 mmHg 73%
    04:00 +7°C° 0 mm 2 m/s 758 mmHg 73%
    05:00 +7°C° 0 mm 2 m/s 758 mmHg 74%
    06:00 +9°C° 0 mm 2 m/s 758 mmHg 67%
    07:00 +12°C° 0 mm 2 m/s 758 mmHg 61%
    08:00 +13°C° 0 mm 3 m/s 758 mmHg 54%
    09:00 +14°C° 0 mm 3 m/s 758 mmHg 49%
    10:00 +17°C° 0 mm 3 m/s 758 mmHg 44%
    11:00 +18°C° 0 mm 3 m/s 758 mmHg 39%
    12:00 +19°C° 0 mm 4 m/s 758 mmHg 37%
    13:00 +19°C° 0 mm 4 m/s 757 mmHg 36%
    14:00 +20°C° 0 mm 4 m/s 757 mmHg 35%
    15:00 +19°C° 0 mm 3 m/s 757 mmHg 38%
    16:00 +19°C° 0 mm 3 m/s 757 mmHg 41%
    17:00 +19°C° 0 mm 2 m/s 757 mmHg 44%
    18:00 +17°C° 0 mm 2 m/s 757 mmHg 50%
    19:00 +15°C° 0 mm 2 m/s 757 mmHg 56%
    20:00 +13°C° 0 mm 2 m/s 757 mmHg 61%
    21:00 +12°C° 0 mm 2 m/s 757 mmHg 63%
    22:00 +12°C° 0 mm 2 m/s 757 mmHg 65%
    23:00 +10°C° 0 mm 2 m/s 757 mmHg 67%

    Mâine, 24 Aprilie, Miercuri

    Timp Temperatura Precipitaţii Vânt Presiune Umiditate
    00:00 +10°C° 0 mm 2 m/s 758 mmHg 69%
    01:00 +9°C° 0 mm 2 m/s 758 mmHg 70%
    02:00 +9°C° 0 mm 2 m/s 758 mmHg 72%
    03:00 +8°C° 0 mm 2 m/s 758 mmHg 73%
    04:00 +8°C° 0 mm 2 m/s 758 mmHg 73%
    05:00 +8°C° 0 mm 2 m/s 758 mmHg 74%
    06:00 +10°C° 0 mm 2 m/s 758 mmHg 67%
    07:00 +13°C° 0 mm 2 m/s 758 mmHg 59%
    08:00 +14°C° 0 mm 3 m/s 758 mmHg 52%
    09:00 +17°C° 0 mm 3 m/s 758 mmHg 47%
    10:00 +18°C° 0 mm 3 m/s 758 mmHg 43%
    11:00 +20°C° 0 mm 3 m/s 758 mmHg 38%
    12:00 +20°C° 0 mm 3 m/s 758 mmHg 37%
    13:00 +21°C° 0 mm 3 m/s 758 mmHg 36%
    14:00 +21°C° 0 mm 3 m/s 758 mmHg 35%
    15:00 +21°C° 0 mm 3 m/s 757 mmHg 38%
    16:00 +21°C° 0 mm 2 m/s 757 mmHg 41%
    17:00 +20°C° 0 mm 2 m/s 757 mmHg 43%
    18:00 +19°C° 0 mm 1 m/s 757 mmHg 48%
    19:00 +16°C° 0 mm 1 m/s 757 mmHg 54%
    20:00 +14°C° 0 mm 1 m/s 757 mmHg 59%
    21:00 +14°C° 0 mm 1 m/s 757 mmHg 61%
    22:00 +13°C° 0 mm 1 m/s 757 mmHg 62%
    23:00 +12°C° 0 mm 1 m/s 757 mmHg 64%

    Poimâine, 25 Aprilie, Joi

    Timp Temperatura Precipitaţii Vânt Presiune Umiditate
    00:00 +12°C° 0 mm 1 m/s 757 mmHg 66%
    01:00 +11°C° 0 mm 1 m/s 757 mmHg 67%
    02:00 +11°C° 0 mm 1 m/s 758 mmHg 69%
    03:00 +11°C° 0 mm 1 m/s 758 mmHg 70%
    04:00 +9°C° 0 mm 0 m/s 758 mmHg 70%
    05:00 +9°C° 0 mm 0 m/s 758 mmHg 71%
    06:00 +12°C° 0 mm 0 m/s 758 mmHg 64%
    07:00 +14°C° 0 mm 0 m/s 758 mmHg 57%
    08:00 +16°C° 0 mm 0 m/s 758 mmHg 49%
    09:00 +18°C° 0 mm 0 m/s 757 mmHg 45%
    10:00 +21°C° 0 mm 1 m/s 757 mmHg 41%
    11:00 +23°C° 0 mm 1 m/s 757 mmHg 37%
    12:00 +23°C° 0 mm 1 m/s 757 mmHg 37%
    13:00 +22°C° 0 mm 1 m/s 757 mmHg 38%
    14:00 +21°C° 0 mm 2 m/s 756 mmHg 38%
    15:00 +21°C° 0 mm 1 m/s 756 mmHg 42%
    16:00 +21°C° 0 mm 1 m/s 756 mmHg 46%
    17:00 +20°C° 0 mm 1 m/s 755 mmHg 49%
    18:00 +19°C° 0 mm 1 m/s 755 mmHg 52%
    19:00 +18°C° 0 mm 1 m/s 755 mmHg 54%
    20:00 +15°C° 0 mm 0 m/s 755 mmHg 56%
    21:00 +14°C° 0 mm 0 m/s 755 mmHg 59%
    22:00 +14°C° 0 mm 1 m/s 755 mmHg 61%
    23:00 +14°C° 0 mm 1 m/s 755 mmHg 63%

    26 Aprilie, Vineri

    Timp Temperatura Precipitaţii Vânt Presiune Umiditate
    00:00 +13°C° 0 mm 1 m/s 755 mmHg 65%
    01:00 +13°C° 0 mm 1 m/s 755 mmHg 68%
    02:00 +11°C° 0 mm 0 m/s 755 mmHg 70%
    03:00 +11°C° 0 mm 0 m/s 755 mmHg 72%
    04:00 +11°C° 0 mm 0 m/s 755 mmHg 74%
    05:00 +11°C° 0 mm 1 m/s 755 mmHg 75%
    06:00 +13°C° 0 mm 1 m/s 755 mmHg 68%
    07:00 +15°C° 0 mm 1 m/s 755 mmHg 61%
    08:00 +18°C° 0 mm 1 m/s 755 mmHg 55%
    09:00 +20°C° 0 mm 1 m/s 755 mmHg 50%
    10:00 +21°C° 0 mm 1 m/s 755 mmHg 46%
    11:00 +22°C° 0 mm 1 m/s 755 mmHg 41%
    12:00 +21°C° 0 mm 1 m/s 754 mmHg 43%
    13:00 +20°C° 0 mm 2 m/s 754 mmHg 46%
    14:00 +19°C° 0 mm 2 m/s 754 mmHg 48%
    15:00 +20°C° 0 mm 1 m/s 754 mmHg 50%
    16:00 +19°C° 0 mm 1 m/s 753 mmHg 52%
    17:00 +19°C° 0 mm 1 m/s 753 mmHg 54%
    18:00 +18°C° 0 mm 1 m/s 753 mmHg 57%
    19:00 +15°C° 0 mm 1 m/s 753 mmHg 61%
    20:00 +14°C° 0 mm 1 m/s 753 mmHg 65%
    21:00 +14°C° 0 mm 2 m/s 753 mmHg 70%
    22:00 +13°C° 0 mm 2 m/s 753 mmHg 75%
    23:00 +12°C° 0 mm 2 m/s 752 mmHg 79%

    27 Aprilie, Sâmbătă

    Timp Temperatura Precipitaţii Vânt Presiune Umiditate
    00:00 +12°C° 0 mm 1 m/s 752 mmHg 80%
    01:00 +12°C° 0 mm 1 m/s 752 mmHg 81%
    02:00 +12°C° 0 mm 1 m/s 752 mmHg 81%
    03:00 +12°C° 0.2 mm 1 m/s 751 mmHg 83%
    04:00 +12°C° 0.2 mm 1 m/s 751 mmHg 85%
    05:00 +12°C° 0.2 mm 1 m/s 751 mmHg 86%
    06:00 +12°C° 0.4 mm 1 m/s 751 mmHg 86%
    07:00 +13°C° 0.4 mm 1 m/s 751 mmHg 85%
    08:00 +13°C° 0.4 mm 1 m/s 750 mmHg 84%
    09:00 +14°C° 0.1 mm 1 m/s 750 mmHg 79%
    10:00 +15°C° 0.1 mm 1 m/s 750 mmHg 74%
    11:00 +16°C° 0.1 mm 1 m/s 749 mmHg 69%
    12:00 +18°C° 0.1 mm 2 m/s 749 mmHg 61%
    13:00 +19°C° 0.1 mm 2 m/s 749 mmHg 54%
    14:00 +21°C° 0.1 mm 2 m/s 748 mmHg 47%
    15:00 +21°C° 0.5 mm 1 m/s 748 mmHg 50%
    16:00 +21°C° 0.5 mm 1 m/s 748 mmHg 53%
    17:00 +21°C° 0.5 mm 1 m/s 748 mmHg 57%
    18:00 +19°C° 0 mm 1 m/s 748 mmHg 62%
    19:00 +16°C° 0 mm 1 m/s 748 mmHg 67%
    20:00 +14°C° 0 mm 1 m/s 748 mmHg 72%
    21:00 +14°C° 0 mm 1 m/s 748 mmHg 75%
    22:00 +13°C° 0 mm 1 m/s 748 mmHg 78%
    23:00 +12°C° 0 mm 1 m/s 748 mmHg 81%

    28 Aprilie, Duminică

    Timp Temperatura Precipitaţii Vânt Presiune Umiditate
    00:00 +12°C° 0 mm 1 m/s 748 mmHg 83%
    01:00 +11°C° 0 mm 1 m/s 748 mmHg 85%
    02:00 +11°C° 0 mm 1 m/s 748 mmHg 87%
    03:00 +10°C° 0 mm 0 m/s 748 mmHg 88%
    04:00 +10°C° 0 mm 0 m/s 747 mmHg 88%
    05:00 +10°C° 0 mm 0 m/s 747 mmHg 89%
    06:00 +12°C° 0 mm 0 m/s 747 mmHg 82%
    07:00 +15°C° 0 mm 1 m/s 748 mmHg 75%
    08:00 +16°C° 0 mm 1 m/s 748 mmHg 67%
    09:00 +19°C° 0.1 mm 1 m/s 748 mmHg 62%
    10:00 +20°C° 0.1 mm 1 m/s 748 mmHg 57%
    11:00 +21°C° 0.1 mm 2 m/s 748 mmHg 51%
    12:00 +21°C° 0.3 mm 2 m/s 747 mmHg 51%
    13:00 +21°C° 0.3 mm 2 m/s 747 mmHg 50%
    14:00 +21°C° 0.3 mm 2 m/s 747 mmHg 49%
    15:00 +20°C° 0.6 mm 3 m/s 747 mmHg 55%
    16:00 +19°C° 0.6 mm 3 m/s 747 mmHg 61%
    17:00 +18°C° 0.6 mm 3 m/s 747 mmHg 67%
    18:00 +17°C° 0 mm 3 m/s 747 mmHg 74%
    19:00 +16°C° 0 mm 3 m/s 748 mmHg 80%
    20:00 +13°C° 0 mm 3 m/s 748 mmHg 87%
    21:00 +13°C° 0 mm 3 m/s 748 mmHg 87%
    22:00 +12°C° 0 mm 3 m/s 748 mmHg 87%
    23:00 +11°C° 0 mm 3 m/s 749 mmHg 87%
    Arată mai mult